NOAA 16 DEB, 41411

Orbit data source: Space-Track

NOAA 16 DEB, 41411 is space debris in SSO originally from a launch on Thu, 21 Sep 2000 UTC launched from the Air Force Western Test Range (AFWTR). Debris objects in space refer to the collection of defunct objects orbiting the Earth. Examples of debris include non-operational satellites, rocket bodies, and fragments generated from explosions, collisions, or faulty payload assembly.

Loading next visibility...
Identifier
41411, 2000-055KQ
Orbit
SSO
Country
Flag of USUS
Related business
Manufacturer
Unknown
Mission
Spacecraft
Bus & Motor
Unknown
Mass
Unknown
Launch date (UTC)
2000-09-21 (25 years ago)
Launch vehicle
Unknown
Launch site
Air Force Western Test Range (AFWTR)
Object type
Payload
Rocket body
Debris
Shape & HBR
Unknown shape, 0.1 m
Radar Cross Section
Small (<0.1 m²)

Expand to show TLE details & history
Last TLE update: 2 days ago

TLE from 2 days ago
0 NOAA 16 DEB
1 41411U 00055KQ  25295.28122443  .00008014  00000-0  27739-2 0  9993
2 41411  98.8304  52.1589 0016836 153.7998 206.4042 14.35868282502553
Epoch: 2025-10-22T06:44Z
TLE epoch observation values (Epoch: 2025-10-22T06:44:57.790Z)
Latitude
-0.00005°
Longitude
-80.03897°
Altitude
785.903 km
Speed
7.455 km/s
True Right ascension
03h 28m 38s
True Declination
0° 00' 00"
Sunlit
Object was in full shadow at epoch
Visualization orbit readout
Latitude
Unknown
Longitude
Unknown
Altitude
Unknown
Speed
Unknown
Apparent Right ascension
Unknown
Apparent Declination
Unknown
Sunlit
N/A
Visualization observer readout
Local Sidereal Time
21:07:05
Azimuth
Unknown
Elevation
Unknown
Doppler factor
Unknown
Orbital elements
Apogee altitude
781.359 km
Perigee altitude
757.292 km
Semi-major axis
7,147.463 km
Eccentricity
0.00168
Inclination
98.8304°
RAAN
52.1589°
Arg. of periapsis
153.7998°
True anomaly
206.31857°
Mean anomaly
206.4042°
Eccentric anomaly
206.36137°
Mean motion
3.59183 °/min
Orbital period
100.23 mins
BSTAR
0.0027739
Loading maneuver chart data...
Computing Atmospheric mass density...
Loading historical data...
Loading historical data...
Loading historical data...
Loading historical data...
Loading historical data...
Loading historical data...
Loading historical data...

Documentation

Showing up to 5 results
|